IK7IZV Weather Reports


Display with metric or nautical units.
time (UTC)temp
F
wind
direction
speed
MPH
gust
MPH
rain 1hr
in
rain 24hr
in
rain mn
in
humidity
%
barometer
mb
20260901074515 83 23 8.0 13.0 0.00 0.00 0.00 84 1017.2
20260901073022 83 22 4.0 9.0 0.00 0.00 0.00 83 1017.0
20260901071513 83 18 4.0 8.0 0.00 0.00 0.00 83 1017.0
20260901070022 82 9 3.0 9.0 0.00 0.00 0.00 84 1016.8
20260901064512 82 357 0.0 0.0 0.00 0.00 0.00 84 1016.8
20260901063008 82 2 0.0 0.0 0.00 0.00 0.00 83 1016.9
20260901061507 81 61 0.0 0.0 0.00 0.00 0.00 82 1016.9
20260901060006 81 16 0.0 0.0 0.00 0.00 0.00 83 1016.9
20260901054607 80 310 0.0 0.0 0.00 0.00 0.00 84 1016.8
20260901053004 79 295 0.0 0.0 0.00 0.00 0.00 85 1016.8
20260901051502 78 292 0.0 0.0 0.00 0.00 0.00 87 1016.6
20260901050100 78 336 0.0 0.0 0.00 0.00 0.00 89 1016.5
20260901044601 78 299 0.0 0.0 0.00 0.00 0.00 90 1016.4
20260901043120 78 276 0.0 0.0 0.00 0.00 0.00 91 1016.3
20260901041607 79 307 0.0 0.0 0.00 0.00 0.00 92 1016.3
20260901034603 80 331 0.0 0.0 0.00 0.00 0.00 92 1016.2
20260901033102 80 332 0.0 0.0 0.00 0.00 0.00 92 1016.1
20260901031550 80 319 0.0 0.0 0.00 0.00 0.00 92 1016.1
20260901030049 80 311 0.0 0.0 0.00 0.00 0.00 92 1016.1
20260901024554 80 313 0.0 0.0 0.00 0.00 0.00 92 1016.2
20260901023047 80 336 0.0 1.0 0.00 0.00 0.00 92 1016.1
20260901021547 80 11 0.0 0.0 0.00 0.00 0.00 92 1016.0
20260901020046 80 345 0.0 5.0 0.00 0.00 0.00 92 1016.0
20260901014544 80 341 2.0 4.0 0.00 0.00 0.00 91 1016.0
20260901013043 80 337 0.0 0.0 0.00 0.00 0.00 91 1015.8
20260901011552 81 29 0.0 0.0 0.00 0.00 0.00 91 1015.8
20260901010043 81 351 0.0 0.0 0.00 0.00 0.00 91 1016.0
20260901004540 81 340 0.0 0.0 0.00 0.00 0.00 91 1016.0
20260901003049 81 324 0.0 0.0 0.00 0.00 0.00 90 1015.8
20260901001539 81 331 0.0 0.0 0.00 0.00 0.00 90 1015.8
20260901000038 81 351 0.0 0.0 0.00 0.00 0.00 90 1015.8
20260831234540 81 337 0.0 0.0 0.00 0.00 0.00 90 1015.9
20260831233036 81 342 0.0 0.0 0.00 0.00 0.00 90 1015.9
20260831231536 81 316 0.0 0.0 0.00 0.00 0.00 90 1015.8
20260831230035 81 324 0.0 0.0 0.00 0.00 0.00 89 1015.8
20260831224533 82 312 0.0 0.0 0.00 0.00 0.00 89 1015.8
20260831223034 82 21 0.0 0.0 0.00 0.00 0.00 89 1015.8
20260831221530 82 352 0.0 0.0 0.00 0.00 0.00 89 1015.7
20260831220031 82 21 0.0 4.0 0.00 0.00 0.00 89 1015.7
20260831214539 82 37 3.0 5.0 0.00 0.00 0.00 89 1015.6
20260831213037 82 32 3.0 5.0 0.00 0.00 0.00 89 1015.5
20260831211525 82 21 2.0 6.0 0.00 0.00 0.00 89 1015.3
20260831210024 82 37 5.0 8.0 0.00 0.00 0.00 89 1015.2
20260831204525 82 11 5.0 9.0 0.00 0.00 0.00 89 1015.2
20260831203037 82 14 5.0 10.0 0.00 0.00 0.00 89 1015.3
20260831201522 82 37 4.0 8.0 0.00 0.00 0.00 89 1015.3
20260831200025 82 24 6.0 10.0 0.00 0.00 0.00 89 1015.2
20260831194523 82 27 4.0 8.0 0.00 0.00 0.00 90 1014.9
20260831193022 82 25 0.0 0.0 0.00 0.00 0.00 89 1014.9
20260831191519 82 31 0.0 0.0 0.00 0.00 0.00 89 1014.8
20260831190020 82 52 0.0 0.0 0.00 0.00 0.00 89 1014.6
20260831184518 82 9 0.0 0.0 0.00 0.00 0.00 88 1014.6
20260831183017 83 33 0.0 0.0 0.00 0.00 0.00 88 1014.5
20260831181517 82 307 0.0 0.0 0.00 0.00 0.00 88 1014.4
20260831180018 83 11 0.0 0.0 0.00 0.00 0.00 88 1014.2
20260831174516 83 49 0.0 7.0 0.00 0.00 0.00 88 1014.3
20260831173016 83 36 5.0 8.0 0.00 0.00 0.00 88 1014.2
20260831171515 83 51 2.0 6.0 0.00 0.00 0.00 88 1014.1
20260831170026 83 25 4.0 7.0 0.00 0.00 0.00 87 1014.2
20260831164514 83 13 3.0 8.0 0.00 0.00 0.00 88 1014.4
20260831163013 83 70 4.0 7.0 0.00 0.00 0.00 87 1014.4
20260831161513 83 20 4.0 9.0 0.00 0.00 0.00 88 1014.4
20260831160027 83 20 5.0 9.0 0.00 0.00 0.00 88 1014.2
20260831154511 83 30 2.0 8.0 0.00 0.00 0.00 88 1014.1
20260831153031 83 26 6.0 11.0 0.00 0.00 0.00 88 1014.1
20260831151511 83 49 9.0 13.0 0.00 0.00 0.00 87 1014.3
20260831150010 84 11 4.0 11.0 0.00 0.00 0.00 86 1014.5
20260831144510 83 44 8.0 13.0 0.00 0.00 0.00 86 1014.6
20260831143009 83 87 8.0 13.0 0.00 0.00 0.00 86 1014.4
20260831141517 84 95 9.0 16.0 0.00 0.00 0.00 86 1014.2
20260831140010 84 45 11.0 16.0 0.00 0.00 0.00 85 1014.1
20260831134508 84 62 10.0 17.0 0.00 0.00 0.00 85 1014.2
20260831133005 84 40 10.0 16.0 0.00 0.00 0.00 84 1014.3
20260831131606 84 38 9.0 14.0 0.00 0.00 0.00 84 1014.4
20260831130004 84 35 9.0 16.0 0.00 0.00 0.00 83 1014.5
20260831124505 84 81 6.0 17.0 0.00 0.00 0.00 83 1014.6
20260831123002 84 54 9.0 17.0 0.00 0.00 0.00 83 1014.7
20260831121507 84 30 8.0 13.0 0.00 0.00 0.00 82 1014.9
20260831120005 84 95 11.0 16.0 0.00 0.00 0.00 81 1014.9
20260831114502 84 118 9.0 16.0 0.00 0.00 0.00 81 1014.9
20260831113101 84 16 12.0 18.0 0.00 0.00 0.00 80 1015.0
20260831111602 84 17 10.0 16.0 0.00 0.00 0.00 81 1015.2
20260831110059 84 53 10.0 16.0 0.00 0.00 0.00 82 1015.1
20260831104557 84 76 11.0 17.0 0.00 0.00 0.00 81 1015.2
20260831103057 84 102 11.0 19.0 0.00 0.00 0.00 81 1015.1
20260831101604 84 10 9.0 16.0 0.00 0.00 0.00 82 1015.1
20260831100054 83 5 10.0 20.0 0.00 0.00 0.00 85 1015.0
20260831094605 83 357 11.0 15.0 0.00 0.00 0.00 83 1015.1
20260831093053 83 32 11.0 17.0 0.00 0.00 0.00 82 1015.1
20260831091553 83 66 13.0 19.0 0.00 0.00 0.00 83 1015.1
20260831090051 83 39 10.0 20.0 0.00 0.00 0.00 81 1015.0
20260831084554 83 69 13.0 20.0 0.00 0.00 0.00 81 1015.0
20260831083054 83 17 8.0 16.0 0.00 0.00 0.00 79 1015.0
20260831081556 83 54 11.0 17.0 0.00 0.00 0.00 79 1014.8
20260831080046 83 9 11.0 18.0 0.00 0.00 0.00 79 1014.9